GW3762 Weather Reports


time (UTC)temp
C
wind
direction
speed
KPH
gust
KPH
rain 1hr
cm
rain 24hr
cm
rain mn
cm
humidity
%
barometer
mb
20260509040458 9 76 1.6 4.8 0.00 0.00 0.00 78 1014.2
20260509035959 9 74 1.6 1.6 0.00 0.00 0.00 76 1014.1
20260509035458 9 74 1.6 1.6 0.00 0.00 0.00 75 1014.1
20260509034958 9 74 0.0 0.0 0.00 0.00 0.00 73 1014.0
20260509033958 9 74 0.0 0.0 0.00 0.00 0.00 71 1014.0
20260509033458 9 74 0.0 3.2 0.00 0.00 0.00 70 1014.0
20260509032958 9 74 0.0 3.2 0.00 0.00 0.00 69 1013.9
20260509032458 9 74 0.0 3.2 0.00 0.00 0.00 68 1013.8
20260509031958 9 74 1.6 3.2 0.00 0.00 0.00 67 1013.8
20260509031458 9 74 1.6 3.2 0.00 0.00 0.00 67 1013.7
20260509030958 10 74 1.6 3.2 0.00 0.00 0.00 68 1013.7
20260509030458 10 74 1.6 3.2 0.00 0.00 0.00 64 1013.8
20260509030003 10 74 1.6 3.2 0.00 0.00 0.00 65 1013.7
20260509024959 10 74 1.6 3.2 0.00 0.00 0.00 60 1013.7
20260509024459 10 74 1.6 4.8 0.00 0.00 0.00 60 1013.5
20260509023959 10 74 4.8 4.8 0.00 0.00 0.00 61 1013.5
20260509023459 10 261 0.0 0.0 0.00 0.00 0.00 59 1013.5
20260509023000 10 261 0.0 0.0 0.00 0.00 0.00 60 1013.6
20260509022459 10 261 0.0 1.6 0.00 0.00 0.00 61 1013.6
20260509021959 10 261 1.6 1.6 0.00 0.00 0.00 63 1013.5
20260509021459 10 261 1.6 1.6 0.00 0.00 0.00 63 1013.6
20260509020959 10 261 0.0 3.2 0.00 0.00 0.00 62 1013.6
20260509020459 10 261 0.0 3.2 0.00 0.00 0.00 60 1013.5
20260509020002 10 261 1.6 1.6 0.00 0.00 0.00 59 1013.5
20260509015459 10 261 0.0 0.0 0.00 0.00 0.00 60 1013.5
20260509014959 10 261 0.0 0.0 0.00 0.00 0.00 58 1013.5
20260509014500 10 261 0.0 0.0 0.00 0.00 0.00 59 1013.4
20260509014000 10 261 0.0 0.0 0.00 0.00 0.00 59 1013.4
20260509013459 10 261 0.0 0.0 0.00 0.00 0.00 61 1013.3
20260509013000 10 261 0.0 0.0 0.00 0.00 0.00 64 1013.3
20260509012459 10 261 0.0 0.0 0.00 0.00 0.00 64 1013.3
20260509011959 10 261 0.0 0.0 0.00 0.00 0.00 63 1013.2
20260509011459 10 261 0.0 0.0 0.00 0.00 0.00 63 1013.2
20260509010959 10 261 0.0 0.0 0.00 0.00 0.00 63 1013.1
20260509010002 10 261 0.0 0.0 0.00 0.00 0.00 61 1012.9
20260509005459 10 261 0.0 0.0 0.00 0.00 0.00 61 1012.7
20260509004959 10 261 0.0 0.0 0.00 0.00 0.00 62 1012.7
20260509004459 10 261 0.0 0.0 0.00 0.00 0.00 61 1012.6
20260509003959 10 261 0.0 0.0 0.00 0.00 0.00 61 1012.4
20260509003459 10 261 0.0 0.0 0.00 0.00 0.00 62 1012.3
20260509002959 10 261 0.0 0.0 0.00 0.00 0.00 62 1012.2
20260509002501 10 261 0.0 0.0 0.00 0.00 0.00 63 1012.2
20260509001959 10 261 0.0 0.0 0.00 0.00 0.00 63 1012.1
20260509001459 10 261 0.0 0.0 0.00 0.00 0.00 64 1012.2
20260509000959 10 261 0.0 0.0 0.00 0.00 0.00 63 1012.3
20260509000459 10 261 0.0 0.0 0.00 0.00 0.00 64 1012.2
20260508234958 10 261 0.0 1.6 0.00 0.00 0.00 66 1012.0
20260508234458 10 261 0.0 4.8 0.00 0.00 0.00 66 1011.9
20260508233958 11 261 0.0 4.8 0.00 0.00 0.00 65 1011.8
20260508233457 11 261 3.2 4.8 0.00 0.00 0.00 65 1011.8
20260508232958 11 261 3.2 4.8 0.00 0.00 0.00 65 1011.7
20260508232458 11 261 1.6 4.8 0.00 0.00 0.00 64 1011.6
20260508231958 11 261 3.2 6.4 0.00 0.00 0.00 64 1011.5
20260508231458 11 261 3.2 6.4 0.00 0.00 0.00 63 1011.4
20260508230958 12 252 3.2 6.4 0.00 0.00 0.00 62 1011.4
20260508230458 12 257 3.2 6.4 0.00 0.00 0.00 62 1011.4
20260508225958 12 269 4.8 11.3 0.00 0.00 0.00 63 1011.4
20260508225458 12 247 4.8 11.3 0.00 0.00 0.00 60 1011.3
20260508224958 12 261 4.8 11.3 0.00 0.00 0.00 62 1011.2
20260508224458 12 254 6.4 11.3 0.00 0.00 0.00 63 1011.1
20260508223958 12 254 3.2 6.4 0.00 0.00 0.00 63 1011.0
20260508222958 12 257 3.2 6.4 0.00 0.00 0.00 62 1011.1
20260508222459 12 252 0.0 6.4 0.00 0.00 0.00 63 1011.1
20260508221458 12 246 3.2 11.3 0.00 0.00 0.00 62 1011.2
20260508220458 12 277 4.8 8.0 0.00 0.00 0.00 62 1011.3
20260508215959 12 250 3.2 6.4 0.00 0.00 0.00 63 1011.3
20260508215459 12 258 1.6 11.3 0.00 0.00 0.00 64 1011.3
20260508214958 12 257 4.8 12.9 0.00 0.00 0.00 61 1011.3
20260508214500 12 257 6.4 12.9 0.00 0.00 0.00 60 1011.2
20260508213958 12 244 6.4 11.3 0.00 0.00 0.00 61 1011.2
20260508213457 12 242 3.2 9.7 0.00 0.00 0.00 63 1011.3
20260508212958 12 261 6.4 11.3 0.00 0.00 0.00 63 1011.3
20260508212458 12 237 8.0 9.7 0.00 0.00 0.00 61 1011.2
20260508211457 13 261 4.8 14.5 0.00 0.00 0.00 61 1011.2
20260508210957 13 245 3.2 11.3 0.00 0.00 0.00 62 1011.1
20260508210458 13 239 4.8 11.3 0.00 0.00 0.00 63 1011.1
20260508205500 13 283 3.2 12.9 0.00 0.00 0.00 62 1011.3
20260508205000 13 257 3.2 12.9 0.00 0.00 0.00 65 1011.3
20260508204459 13 274 4.8 14.5 0.00 0.00 0.00 62 1011.1
20260508204000 13 252 6.4 14.5 0.00 0.00 0.00 64 1011.0
20260508203458 13 256 3.2 9.7 0.00 0.00 0.00 63 1011.2
20260508202959 12 264 3.2 8.0 0.00 0.00 0.00 67 1011.2
20260508202459 12 257 4.8 8.0 0.00 0.00 0.00 65 1011.1
20260508201959 12 249 3.2 14.5 0.00 0.00 0.00 64 1011.2
20260508201459 12 230 4.8 20.9 0.00 0.00 0.00 62 1011.4
20260508200959 13 219 14.5 20.9 0.00 0.00 0.00 60 1011.4
20260508200459 13 234 11.3 16.1 0.00 0.00 0.00 65 1011.4
20260508195959 13 244 6.4 17.7 0.00 0.00 0.00 64 1011.4
20260508195458 12 244 6.4 14.5 0.00 0.00 0.00 66 1011.4
20260508194958 11 243 9.7 14.5 0.00 0.00 0.00 67 1011.4
20260508194458 11 288 4.8 14.5 0.00 0.00 0.00 67 1011.5
20260508193959 11 250 8.0 14.5 0.00 0.00 0.00 67 1011.5
20260508193458 11 250 6.4 12.9 0.00 0.00 0.00 66 1011.6
20260508191959 12 286 3.2 16.1 0.00 0.00 0.00 64 1011.5
20260508191459 12 252 4.8 17.7 0.00 0.00 0.00 61 1011.3
20260508190959 12 259 4.8 25.7 0.00 0.00 0.00 58 1011.2
20260508190458 12 240 16.1 25.7 0.00 0.00 0.00 56 1010.8
20260508190000 12 244 8.0 20.9 0.00 0.00 0.00 54 1010.7
20260508185458 13 231 6.4 14.5 0.00 0.00 0.00 54 1010.6
20260508184958 13 251 6.4 20.9 0.00 0.00 0.00 53 1010.4
20260508184458 14 244 16.1 19.3 0.00 0.00 0.00 50 1010.3
20260508183958 15 229 6.4 14.5 0.00 0.00 0.00 50 1010.3
20260508183501 15 252 12.9 14.5 0.00 0.00 0.00 52 1010.5
20260508182957 14 274 3.2 8.0 0.00 0.00 0.00 52 1010.8
20260508182457 15 250 6.4 14.5 0.00 0.00 0.00 53 1010.8
20260508181958 15 241 6.4 14.5 0.00 0.00 0.00 53 1010.8
20260508180458 12 232 6.4 19.3 0.00 0.00 0.00 59 1011.0
20260508180001 12 255 11.3 19.3 0.00 0.00 0.00 54 1011.1
20260508175500 12 228 9.7 17.7 0.00 0.00 0.00 55 1011.1
20260508174959 12 217 4.8 16.1 0.00 0.00 0.00 56 1010.9
20260508174000 12 229 8.0 27.4 0.00 0.00 0.00 53 1010.9
20260508173458 13 226 11.3 25.7 0.00 0.00 0.00 51 1010.8
20260508173006 13 286 6.4 17.7 0.00 0.00 0.00 50 1011.0
20260508172000 14 265 9.7 24.1 0.00 0.00 0.00 52 1010.9
20260508171459 13 229 1.6 8.0 0.00 0.00 0.00 50 1011.0
20260508170959 12 254 1.6 11.3 0.00 0.00 0.00 55 1011.1
20260508170459 12 249 8.0 11.3 0.00 0.00 0.00 53 1011.0
20260508170000 12 249 3.2 16.1 0.00 0.00 0.00 52 1011.1
20260508165457 12 256 11.3 19.3 0.00 0.00 0.00 52 1011.0
20260508164957 13 259 16.1 16.1 0.00 0.00 0.00 52 1011.0
20260508164458 13 252 8.0 19.3 0.00 0.00 0.00 49 1010.9
20260508163458 14 240 4.8 14.5 0.00 0.00 0.00 47 1011.0
20260508163001 15 252 8.0 14.5 0.00 0.00 0.00 50 1011.0
20260508162500 15 229 11.3 14.5 0.00 0.00 0.00 49 1011.1
20260508161957 15 249 8.0 12.9 0.00 0.00 0.00 45 1011.0
20260508161502 15 260 9.7 17.7 0.00 0.00 0.00 48 1011.2
20260508160457 15 246 4.8 12.9 0.00 0.00 0.00 48 1011.1
20260508155959 14 289 4.8 12.9 0.00 0.00 0.00 46 1011.4
20260508155457 13 254 4.8 8.0 0.00 0.00 0.00 51 1011.3
20260508154958 14 233 4.8 16.1 0.00 0.00 0.00 48 1011.4
20260508154458 15 286 3.2 17.7 0.00 0.00 0.00 46 1011.4
20260508153457 15 263 9.7 20.9 0.00 0.00 0.00 50 1011.3
20260508152958 15 251 11.3 20.9 0.00 0.00 0.00 50 1011.3
20260508152458 14 252 4.8 14.5 0.00 0.00 0.00 52 1011.3
20260508151958 15 259 14.5 14.5 0.00 0.00 0.00 56 1011.4
20260508151458 15 257 1.6 11.3 0.00 0.00 0.00 60 1011.4
20260508150958 14 263 11.3 12.9 0.00 0.00 0.00 55 1011.5
20260508150458 14 232 4.8 12.9 0.00 0.00 0.00 54 1011.5
20260508150000 14 242 8.0 8.0 0.00 0.00 0.00 55 1011.5
20260508145457 14 247 1.6 8.0 0.00 0.00 0.00 56 1011.6
20260508144958 14 225 4.8 6.4 0.00 0.00 0.00 53 1011.5
20260508144459 14 238 4.8 8.0 0.00 0.00 0.00 54 1011.5
20260508143957 13 265 4.8 8.0 0.00 0.00 0.00 55 1011.5
20260508143458 13 281 3.2 8.0 0.00 0.00 0.00 54 1011.5
20260508142957 13 291 3.2 11.3 0.00 0.00 0.00 57 1011.5
20260508142458 13 271 3.2 12.9 0.00 0.00 0.00 56 1011.7
20260508141958 13 224 3.2 12.9 0.00 0.00 0.00 54 1011.6
20260508141458 13 267 3.2 6.4 0.00 0.00 0.00 58 1011.7
20260508141001 12 238 3.2 9.7 0.00 0.00 0.00 59 1011.8
20260508140503 13 232 1.6 8.0 0.00 0.00 0.00 57 1011.8
20260508140000 13 221 4.8 9.7 0.00 0.00 0.00 54 1011.7
20260508135458 12 284 4.8 9.7 0.00 0.00 0.00 57 1011.8
20260508134958 12 246 3.2 9.7 0.00 0.00 0.00 59 1011.7
20260508134457 12 247 4.8 9.7 0.00 0.00 0.00 59 1011.8
20260508133957 12 248 3.2 8.0 0.00 0.00 0.00 63 1011.8
20260508133001 12 296 4.8 6.4 0.00 0.00 0.00 58 1012.0
20260508132458 12 288 3.2 6.4 0.00 0.00 0.00 62 1012.1
20260508131459 11 266 3.2 6.4 0.00 0.00 0.00 61 1012.2
20260508130958 11 283 3.2 8.0 0.00 0.00 0.00 62 1012.2
20260508130458 11 256 3.2 8.0 0.00 0.00 0.00 68 1012.2
20260508125959 10 259 4.8 6.4 0.00 0.00 0.00 67 1012.2
20260508125458 10 277 4.8 8.0 0.00 0.00 0.00 68 1012.2
20260508125001 10 269 3.2 8.0 0.00 0.00 0.00 69 1012.2
20260508124458 9 250 3.2 6.4 0.00 0.00 0.00 72 1012.1
20260508123958 9 262 3.2 4.8 0.00 0.00 0.00 72 1012.2
20260508123458 9 267 3.2 4.8 0.00 0.00 0.00 71 1012.2
20260508122958 8 256 3.2 4.8 0.00 0.00 0.00 73 1012.1
20260508122457 8 270 3.2 6.4 0.00 0.00 0.00 74 1012.1
20260508121958 8 264 3.2 6.4 0.00 0.00 0.00 75 1012.1
20260508121458 8 260 3.2 6.4 0.00 0.00 0.00 74 1012.1
20260508120957 8 266 0.0 9.7 0.00 0.00 0.00 75 1012.1
20260508120458 8 273 4.8 6.4 0.00 0.00 0.00 77 1012.0
20260508115959 8 263 1.6 9.7 0.00 0.00 0.00 77 1012.0
20260508115457 7 252 4.8 8.0 0.00 0.00 0.00 78 1012.0
20260508114958 7 266 3.2 6.4 0.00 0.00 0.00 78 1011.9
20260508114458 7 263 3.2 6.4 0.00 0.00 0.00 78 1011.9
20260508113957 7 265 3.2 8.0 0.00 0.00 0.00 79 1011.8
20260508113457 7 253 3.2 8.0 0.00 0.00 0.00 80 1011.9
20260508112957 7 250 6.4 9.7 0.00 0.00 0.00 80 1011.8
20260508112457 7 257 3.2 9.7 0.00 0.00 0.00 80 1011.7
20260508111958 7 256 4.8 6.4 0.00 0.00 0.00 80 1011.8
20260508111458 7 259 6.4 9.7 0.00 0.00 0.00 81 1011.8
20260508110958 6 259 3.2 9.7 0.00 0.00 0.00 81 1011.7
20260508110457 6 256 4.8 6.4 0.00 0.00 0.00 80 1011.7
20260508105956 6 258 4.8 9.7 0.00 0.00 0.00 81 1011.8
20260508105456 6 257 6.4 9.7 0.00 0.00 0.00 81 1011.8
20260508104457 6 257 4.8 6.4 0.00 0.00 0.00 81 1011.7
20260508103956 6 257 4.8 6.4 0.00 0.00 0.00 81 1011.6
20260508103456 6 257 3.2 6.4 0.00 0.00 0.00 82 1011.5
20260508102957 6 257 3.2 6.4 0.00 0.00 0.00 81 1011.5
20260508102456 6 257 4.8 6.4 0.00 0.00 0.00 81 1011.5
20260508101956 6 257 4.8 6.4 0.00 0.00 0.00 80 1011.5
20260508101459 6 257 3.2 4.8 0.00 0.00 0.00 80 1011.3
20260508100956 6 257 3.2 4.8 0.00 0.00 0.00 80 1011.2
20260508100456 6 257 1.6 4.8 0.00 0.00 0.00 79 1011.2
20260508095959 6 257 3.2 4.8 0.00 0.00 0.00 78 1011.1
20260508095457 6 257 3.2 4.8 0.00 0.10 0.00 78 1011.0
20260508094457 6 257 3.2 4.8 0.00 0.10 0.00 77 1010.7
20260508093458 6 257 1.6 6.4 0.00 0.10 0.00 77 1010.8
20260508092957 6 257 3.2 6.4 0.00 0.10 0.00 76 1010.9
20260508092458 6 257 4.8 4.8 0.00 0.10 0.00 76 1010.8
20260508091957 6 257 1.6 6.4 0.00 0.10 0.00 75 1010.9
20260508091458 6 257 4.8 6.4 0.00 0.10 0.00 74 1010.9
20260508090957 6 257 4.8 6.4 0.00 0.10 0.00 74 1010.9
20260508090457 6 257 4.8 6.4 0.00 0.10 0.00 74 1010.9
20260508085958 6 257 3.2 6.4 0.00 0.18 0.00 73 1011.0
20260508085457 6 257 3.2 6.4 0.00 0.18 0.00 73 1010.9
20260508084959 6 257 4.8 6.4 0.00 0.18 0.00 73 1010.9
20260508084458 6 256 3.2 6.4 0.00 0.18 0.00 73 1010.8
20260508083958 6 256 1.6 6.4 0.00 0.18 0.00 73 1010.8
20260508083458 6 256 3.2 8.0 0.00 0.18 0.00 72 1010.9
20260508082958 6 255 8.0 9.7 0.00 0.18 0.00 72 1010.9
20260508082457 7 260 4.8 9.7 0.00 0.18 0.00 72 1010.9
20260508081958 7 265 4.8 6.4 0.00 0.18 0.00 71 1010.9
20260508081457 7 265 3.2 6.4 0.00 0.18 0.00 72 1010.9
20260508080458 7 267 1.6 4.8 0.00 0.18 0.00 72 1010.8
20260508075958 7 273 3.2 4.8 0.00 0.30 0.00 71 1010.7
20260508075456 7 275 3.2 4.8 0.00 0.30 0.00 71 1010.8
20260508074956 7 279 3.2 4.8 0.00 0.30 0.00 70 1010.7
20260508073957 7 268 1.6 4.8 0.00 0.30 0.00 72 1010.6
20260508073457 7 268 3.2 4.8 0.00 0.30 0.00 72 1010.7
20260508072956 7 268 4.8 4.8 0.00 0.30 0.00 72 1010.7
20260508072456 7 268 3.2 4.8 0.00 0.30 0.00 71 1010.6
20260508065957 6 273 4.8 11.3 0.00 0.51 0.00 72 1010.9
20260508065457 6 265 6.4 11.3 0.00 0.51 0.00 73 1010.6
20260508064957 6 266 4.8 6.4 0.00 0.51 0.00 73 1010.6
20260508064457 6 262 1.6 9.7 0.00 0.51 0.00 75 1010.3
20260508063957 6 278 1.6 4.8 0.00 0.51 0.00 76 1010.2
20260508063458 6 263 3.2 4.8 0.00 0.51 0.00 76 1010.1
20260508062957 6 257 3.2 4.8 0.00 0.51 0.00 73 1009.8
20260508061957 6 265 3.2 4.8 0.00 0.51 0.00 75 1009.8
20260508061457 6 277 1.6 4.8 0.00 0.51 0.00 77 1009.9
20260508060458 6 290 3.2 6.4 0.00 0.51 0.00 75 1009.7
20260508055957 6 268 1.6 4.8 0.00 0.51 0.00 73 1009.6
20260508055458 6 265 1.6 8.0 0.00 0.51 0.00 73 1009.5
20260508054957 6 34 1.6 8.0 0.00 0.51 0.00 67 1009.4
20260508054457 7 305 1.6 6.4 0.00 0.51 0.00 69 1009.4
20260508053957 7 306 1.6 6.4 0.00 0.51 0.00 63 1009.3
20260508052958 7 345 0.0 3.2 0.00 0.51 0.00 63 1009.4
20260508052458 7 290 0.0 4.8 0.00 0.51 0.00 68 1009.4
20260508051457 8 339 1.6 12.9 0.00 0.51 0.00 54 1009.4
20260508050957 8 348 0.0 12.9 0.00 0.51 0.00 52 1009.3
20260508050458 8 69 3.2 8.0 0.00 0.51 0.00 53 1009.3
20260508045458 8 119 1.6 6.4 0.00 0.51 0.00 53 1009.4
20260508044958 8 41 1.6 6.4 0.00 0.51 0.00 52 1009.4
20260508044458 8 52 0.0 6.4 0.00 0.51 0.00 53 1009.3
20260508043958 8 51 1.6 6.4 0.00 0.51 0.00 52 1009.4
20260508043459 8 86 0.0 6.4 0.00 0.51 0.00 53 1009.4
20260508042958 8 18 1.6 8.0 0.00 0.51 0.00 52 1009.5
20260508042458 8 360 1.6 8.0 0.00 0.51 0.00 53 1009.5
20260508041958 8 46 8.0 8.0 0.00 0.51 0.00 54 1009.6
20260508041458 8 57 1.6 9.7 0.00 0.51 0.00 52 1009.6